Погода в Уюке

Погода в Уюке : погода сейчас, прогноз погоды и архив. Всё, что Вы хотите узнать о погоде в Уюке!

Поиск расширенной информации на нашем сайте:

Другие новости

Новости СМИ2

Главная страница сайта

Новости сайта

03.07.2017

Напоминаем, что на нашем специализированном сайте Метеоцентр.Азия вы можете получить высокодетализированные автоматические прогнозы погоды по пунктам России, СНГ и мира в авиационном формате (включающие направление и скорость ветра, видимость, явления погоды, количество и форму облачности, нижнюю и верхнюю границу облачности).

Рекомендуем: мольберт детский

Погода в Уюке - сегодня

Время (UTC), дата Ветер
(°,м/с) 
Видим.   Явления Облачность Т
(°С)
Тd
(°С)
f(%) Тe
(°С)
Pmin
(гПа)
dP
(гПа)
Po
(мм)
O2
(г/м3)
Тmin Tmax R s Состояние
почвы
18 15.06.18 040 (СВ) 20000 м    4/0 верхняя 
[Ci sp]
+20.3 +5.3 37 +20  1013.5  1.5  728  272    +26.9       
21 15.06.18 тихо ()   20000 м    3/0 верхняя 
[Ci sp]
+18.2 +6.5 46 +18  1014.1  0.3  728  274           
00 16.06.18 тихо ()   20000 м    ясно 
+14.9 +5.9 55 +15  1013.9  -0.6  728  277           
06 16.06.18 тихо ()   20000 м    4/4 600 м 
[Cu med, cong]
+25.9 +9.3 35 +27  1011.5  -0.9  727  266  +14.8         
09 16.06.18 020 (С) 20000 м    3/3 600 м 
[Cu med, cong]
+28.6 +6.1 24 +29  1009.4  -1.6  726  264           
12 16.06.18 090 (В) 20000 м    3/3 600 м 
[Cu hum]
+30.3 +5.8 21 +30  1007.8  -1.4  725  262           
15 16.06.18 тихо ()   20000 м    ясно 
+27.4 +8.8 31 +28  1007.5  -0.6  724  264    +30.5       
18 16.06.18 тихо ()   20000 м    ясно 
+21.9 +7.4 39 +22  1007.6  -0.7  724  269    +30.5       
21 16.06.18 тихо ()   20000 м    ясно 
+19.7 +7.1 44 +20  1007.5  -0.3  724  271           
00 17.06.18 090 (В) 20000 м    ясно 
+17.9 +7.4 50 +19  1005.5  -2.2  722  272           
06 17.06.18 050 (СВ) 20000 м    3/3 1000 м 
[Cu hum]
+30 +5.1 21 +30  1002.3  -1.1  721  261  +17.8         
09 17.06.18 100 (В) 20000 м    3/3 1000 м 
[Cu hum]
+32.3 +3 16 +32  1000.5  -1.5  720  259           
12 17.06.18 320 (СЗ) 20000 м    1/1 1000 м 
[Cu hum]
+33.9 +1.7 13 +34  999.1  -1  719  257           
15 17.06.18 тихо ()   20000 м    3/0 средняя, верхняя 
[Ac trans|Ci sp]
+29 +5.5 23 +29  999.8  719  261    +34.5       
18 17.06.18 210 (ЮЗ) 20000 м    4/0 средняя, верхняя 
[Ac trans|Ci sp]
+23 +8.4 39 +23  1000.8  0.2  719  266    +34.5       
21 17.06.18 тихо ()   20000 м    3/0 верхняя 
[Ci sp]
+19.9 +7.7 45 +20  1001  -0.3  719  269           
00 18.06.18 210 (ЮЗ) 20000 м    ясно 
+19.7 +8.4 48 +21  1000.8  -0.2  719  269           
06 18.06.18 250 (З) 20000 м    ясно 
+33.5 +5 17 +34  1000.8  0.5  720  258  +19.6         
09 18.06.18 270 (З) 20000 м    6/4 600 м верхняя 
[Cu med, cong|Ci sp]
+36.4 +0.4 10 +36  998.8  -1.6  719  255           
12 18.06.18 240 (ЮЗ) 20000 м    8/3 600 м верхняя 
[Cu med, cong|Ci sp]
+35.5 -0.2 10 +36  997.7  -1.3  718  256           
15 18.06.18 260 (З) 20000 м    9/0 средняя, верхняя 
[Ac lent|Ci sp]
+33.1 -0.5 12 +33  998.2  0.3  718  258    +37.1       
18 18.06.18 310 (СЗ) 20000 м    8/0 средняя, верхняя 
[Ac trans|Ci sp]
+26 +7.4 31 +26  1002  2.7  720  264    +37.1       
21 18.06.18 290 (З) 20000 м    6/0 средняя, верхняя 
[Ac lent|Ci sp]
+24.5 +10 40 +26  1001.8  -0.3  720  264           
00 19.06.18 200 (Ю) 20000 м    6/0 верхняя 
[Ci sp]
+19.8 +7.6 45 +21  1005.2  2.6  722  270           
06 19.06.18 тихо ()   20000 м    9/0 верхняя 
[Ci sp]
+27.2 +3 21 +27  1003.7  -0.8  722  264  +19.7         
Время (UTC), дата Ветер
(°,м/с) 
Видим.   Явления Облачность Т
(°С)
Тd
(°С)
f(%) Тe
(°С)
Pmin
(гПа)
dP
(гПа)
Po
(мм)
O2
(г/м3)
Тmin Tmax R s Состояние
почвы

Для получения пояснительной информации подведите курсор к названию столбца.

ПОГОДА в Уюке - архив

Всё, что Вы хотите узнать о погоде в Уюке - удобно и подробно!

Выберите нужную дату (начиная с 1 января 2015* года) и нажмите кнопку "Найти".
Будут отображены архивные сводки погоды по пункту Уюк, начиная с указанной даты.


Отображать данные в формате CSV (для использования в таблицах Excel)


Внимание! Наш архив погоды предназначен исключительно для личного некоммерческого использования в познавательных целях. Если Вам необходимы официальные справки о состоянии погоды (для производственных, юридических, коммерческих и т.п. целей), обращайтесь в органы Росгидромета.

*Примечание: данная дата относится к архиву по метеостанциям СССР (Россия, СНГ, Балтия).
Архив по метеостанциям Зарубежной Европы и Азии (кроме Китая) хранится 10 дней, по другим регионам земного шара (Китай, Африка, Америка, Австралия, Океания) - 1 день.

Уюк - район местоположения метеостанции


Название, широта, долгота, высота метеостанции:
Уюк 43.8°ш. 70.9°д. 366 м над ур. моря [Казахстан]

Дополнительная информация

В oтличие oт бoльшинства пoгoдных сайтoв мы публикуем пoдрoбную метеoинфoрмацию в детальнoм прoфессиoнальнoм фoрмате.

Характеристики температуры и влажнoсти вoздуха измеряются на высoте 2 м в тени вдали oт зданий и деревьев.
Скoрoсть ветра измеряется на высoте 10 м (на урoвне рoста челoвека скoрoсть ветра ниже в 1.5-2 раза). Если метеoстанция нахoдится в гoрoде или в лесу, тo скoрoсть ветра занижена на 2-4 м/с пo сравнению с oткрытым местoм. Скoрoсть ветра над акватoриями крупных рек и oзёр, а также на вершинах хoлмoв на 2-5 м/с выше, чем в oбычных услoвиях.
Атмoсфернoе давление в разных тoчках местнoсти мoжет значительнo oтличаться oт давления на метеoстанции, в зависимoсти oт услoвий рельефа (при пoдъёме на 10 м давление пoнижается примернo на 1 мм рт.ст.).